Location: Hains Lake
(37.8540°N, 99.8578°W)
Time: 19:25:36
(UTC+00:00)

Courier 1B Rocket - Pass Details

Date: 28 April 2021
Orbit: 920 x 1202 km, 28.2° (Epoch: 05 May)

Event Time Altitude Azimuth Distance (km) Brightness Sun altitude
Rises 02:23:22 0° 260° (W) 3,588 8.9 -11.1°
Reaches altitude 10° 02:26:13 10° 250° (WSW) 2,671 7.9 -11.6°
Maximum altitude 02:31:46 31° 190° (S) 1,655 6.0 -12.5°
Enters shadow 02:36:09 16° 139° (SE) 2,391 6.5 -13.3°
